Location: *
(34.6903°N, 135.5184°E)
Time: 13:32:26
(UTC+00:00)

Atlas Centaur 2 - Pass Details

Date: 22 September 2019
Orbit: 459 x 1311 km, 30.4° (Epoch: 19 October)

Event Time Altitude Azimuth Distance (km) Brightness Sun altitude
Exits shadow 17:46:55 24° 127° (SE) 1,929 4.2 -36.1°
Drops below altitude 10° 17:49:46 10° 117° (ESE) 2,871 5.3 -35.6°
Sets 17:52:54 0° 113° (ESE) 3,957 6.1 -35.0°
